User: anonymous   Login
Location: Unspecified
(0.0000°N, 0.0000°E)
Time: 01:50:09
(UTC+00:00)
Language:

OBJECT-A - Orbit

View from above orbital plane
View from above orbital plane
View from above satellite
View from above satellite

Ground track
Ground track

The orbit data is extracted from the following two-line orbital elements,

1 40381U 15004A   17177.91458703 0.00000000  00000-0  00000-0 0    09
2 40381  97.3485 249.3305 0003000 280.6758  79.3241 15.27650529    07
Epoch (UTC): 26 June 2017 21:57:00
Eccentricity: 0.0003000
inclination: 97.3485°
perigee height: 481 km
apogee height: 485 km
right ascension of ascending node: 249.3305°
argument of perigee: 280.6758°
revolutions per day: 15.27650529
mean anomaly at epoch: 79.3241°
orbit number at epoch: 0

The dashed part of the orbit path shows where the satellite is in the earth's shadow,  

DLR